Terug naar catalogus

BADR 6

ActiefCommunicatieGEO
NORAD 33154·PAYLOAD·🇦🇪 UAE🇸🇦 Saudi Arabia

Gelanceerd Jul 7, 2008 vanaf Guiana Space Centre

Loading…

TLE

VersSource: Space-Track

Epoch: Sep 14, 2026, 10:12 UTC

1 33154U 08034B   26257.42536450 -.00000216  00000-0  00000-0 0  9992
2 33154   3.0977  78.4001 0006835  19.0569  12.5268  0.98746895 66558

Volg BADR 6 in realtime met AllMySat

Download on the App Store